sat.trackr.live / text

‹ back to catalog

STARLINK-31273

NORAD 58846 · 2024-017W

PAYLOAD ACTIVE UNKNOWN

§ Identity

Operator
Country
US
Launch date
2024-01-24
Launch site
AFWTR
Launch vehicle
Mass (kg)
RCS (m²)

Purposes: comms

External: N2YO · Heavens-Above · Gunter

§ Orbital elements

Epoch: 2026-05-25T04:11:37.530816Z

Period
94.11 min
Inclination
53.1598°
Eccentricity
0.0001120
Mean motion
15.30195487 rev/d
Perigee alt
474.5 km
Apogee alt
476.0 km
Semi-major
6,853.4 km
B*
5.0825e-5
RAAN
209.2507°
Arg perigee
80.4648°
Mean anomaly
279.6479°
Rev number
13,176

§ Raw data

STARLINK-312731 58846U 24017W   26145.17473994  .00001146  00000+0  50825-4 0  99922 58846  53.1598 209.2507 0001120  80.4648 279.6479 15.30195487131768

JSON: /api/v1/satellites/58846 · /tle

For live sub-satellite position, see the globe view (requires WebGL).

§ Visibility from observer

Set your observer location to see the next 7 days of passes ≥ 10°. The values pass through the URL so the page stays shareable.

No JS? Fill the form by hand. The geolocation button needs JavaScript.